GFSCGP_700_temp_003.txt.gz
Temp
16 17 18 19 19 20 20 20 20 19 18 18 18 16 15 14 14 14 13 12 12 12 11 9 9 9 8 8 11 11 11 10 10 10 10 9 9 9 9 9 8 8 8 8
16 17 18 19 19 19 19 20 20 19 19 18 18 17 16 15 15 14 14 13 12 12 11 10 12 11 9 11 11 11 11 10 10 10 9 9 9 9 9 9 9 9 9 9
18 18 18 18 19 19 18 19 20 20 18 18 17 17 16 15 15 14 14 13 13 12 12 11 12 12 10 11 11 11 10 10 10 10 10 10 10 9 9 7 8 9 9 9
18 18 18 18 18 18 19 19 19 19 19 19 18 20 17 16 15 15 14 14 13 13 12 11 10 12 10 11 11 10 10 10 10 10 10 10 9 9 9 9 9 8 9 9
18 19 18 18 18 18 19 19 19 19 19 19 18 19 16 15 15 15 15 14 14 13 12 12 11 10 10 11 11 10 10 10 10 10 10 10 10 9 9 10 9 9 9 9
18 18 18 18 19 18 18 18 18 18 19 19 19 17 20 17 16 16 15 15 14 13 12 12 11 10 10 12 11 10 10 10 10 10 10 10 10 10 9 9 9 9 9 9
18 18 18 19 19 18 18 18 19 19 20 20 20 20 20 19 18 17 17 15 15 14 13 12 11 10 11 12 12 11 10 10 10 9 10 10 10 10 9 9 9 8 8 8
18 18 18 18 18 18 18 19 20 19 21 21 19 19 19 18 18 17 17 16 15 14 13 12 11 10 12 12 12 11 10 10 10 9 10 10 10 10 9 9 8 8 7 7
19 19 19 18 18 18 18 18 19 20 20 20 20 19 18 17 17 16 16 16 15 14 13 12 11 10 10 12 12 11 11 10 10 10 9 9 10 9 9 8 8 7 7 7
20 20 19 19 18 19 18 18 19 19 19 20 20 20 19 17 17 17 16 15 15 15 13 12 11 10 10 12 12 11 11 10 10 10 9 9 9 9 8 8 7 6 6 6
19 20 19 19 18 18 18 18 19 19 19 21 21 21 19 17 17 17 16 15 15 15 13 12 11 10 11 12 12 11 11 10 10 10 10 9 9 8 8 7 6 6 6 6
18 19 19 19 18 18 18 18 18 18 19 19 19 19 18 17 17 16 16 15 14 14 12 11 11 10 10 12 12 12 11 10 10 10 9 9 9 8 7 6 6 6 6 5
18 18 19 19 18 18 18 18 19 19 19 18 19 19 17 17 16 16 15 15 14 13 12 12 11 10 11 13 12 11 11 10 10 10 9 9 9 8 7 6 6 6 5 5
17 18 18 19 19 18 18 18 18 19 19 19 18 18 17 17 16 15 15 15 14 13 13 12 12 10 12 12 12 11 10 10 9 9 9 8 8 8 7 6 6 5 5 5
17 17 17 18 18 19 18 18 18 18 18 18 19 17 17 16 15 15 14 14 14 13 12 12 13 11 13 13 12 11 10 10 9 9 8 8 8 7 6 5 5 5 5 5
16 17 17 17 18 18 19 19 19 18 18 18 18 18 17 16 15 14 14 14 13 13 12 11 11 10 12 12 12 10 10 9 9 9 8 8 7 6 5 5 5 5 5 5
16 16 17 17 18 18 18 18 18 18 18 18 18 17 16 15 14 14 13 13 12 13 12 11 11 12 11 11 11 10 10 9 9 8 8 8 6 5 5 4 4 4 4 4
15 15 16 17 17 18 18 18 17 18 18 17 16 16 15 14 14 13 13 12 12 12 12 11 12 11 10 11 10 10 9 9 8 8 8 7 6 5 4 4 4 4 4 3
15 15 16 16 17 17 17 16 16 17 17 16 15 15 14 14 13 13 13 12 13 13 13 11 12 10 9 10 10 9 9 8 8 8 7 6 5 5 4 4 4 4 3 3
14 14 14 16 16 17 15 16 16 16 16 16 15 14 13 13 13 13 12 12 13 12 12 12 11 9 11 10 9 9 9 8 8 7 6 5 5 5 5 4 3 2 2 2
14 13 14 15 15 16 16 15 14 14 14 14 14 13 13 13 13 12 11 11 11 12 11 11 11 11 10 9 9 9 8 8 7 6 6 6 5 5 4 4 3 2 2 2
14 14 14 15 15 16 15 14 14 13 12 12 12 12 12 12 12 12 11 10 11 11 11 10 10 10 9 9 9 8 8 7 6 6 6 5 5 4 3 3 3 3 2 2
13 13 13 12 11 11 12 12 11 12 12 12 12 12 12 11 11 12 11 10 10 10 10 10 9 9 9 8 8 8 7 7 6 6 6 5 5 4 3 3 2 2 2 1
10 12 12 12 11 10 11 10 9 11 11 11 11 11 11 10 10 11 11 10 9 9 9 9 8 7 7 8 7 7 7 6 6 6 5 5 4 3 3 2 2 1 1 2
11 10 11 11 11 10 9 9 10 10 10 10 10 10 10 9 10 10 9 8 8 7 7 9 8 8 7 7 7 7 6 6 5 5 4 4 3 3 2 2 2 2 2 1
10 10 10 10 10 9 9 9 9 9 9 9 9 8 9 9 9 8 7 8 8 8 7 7 7 5 7 7 7 7 7 5 4 4 3 3 2 2 2 1 2 1 1 1

GFSCGP_700_temp_006.txt.gz
Temp
16 17 18 19 19 20 21 21 19 19 18 17 16 16 16 16 15 14 13 12 12 12 11 10 9 9 9 9 11 10 11 9 10 10 10 10 10 9 9 9 9 9 9 9
17 17 19 20 20 20 21 21 21 20 20 19 17 16 16 16 16 15 14 13 13 12 11 13 11 9 9 9 11 11 11 10 10 10 10 10 10 10 10 10 10 10 10 10
17 18 19 20 20 20 20 20 21 21 20 19 19 17 14 16 16 16 15 14 13 12 11 13 13 13 10 11 11 11 11 11 10 10 10 10 10 10 9 9 7 10 10 9
18 19 19 19 20 20 20 20 20 21 20 20 19 19 17 16 16 16 15 14 14 13 12 11 12 13 11 12 11 11 11 11 10 10 10 10 10 10 9 8 9 9 9 9
18 19 19 19 20 20 20 20 20 20 20 20 20 19 18 17 17 16 16 15 15 14 13 12 11 10 9 11 12 11 11 11 10 10 10 10 11 11 10 10 10 9 9 9
19 19 19 19 19 19 19 19 20 20 20 20 20 20 17 16 17 16 16 16 15 14 14 13 12 11 10 10 12 12 11 11 11 10 10 11 11 11 10 10 10 10 9 9
18 19 20 19 19 19 20 19 20 20 20 20 21 20 19 18 17 17 16 13 16 15 14 13 13 12 11 11 12 12 11 11 11 10 10 10 10 11 11 10 10 9 9 8
19 19 19 19 19 20 19 19 20 19 21 22 21 20 19 19 18 17 16 16 16 15 15 14 13 12 11 11 12 12 11 11 11 10 10 10 10 10 10 10 10 9 9 8
19 20 20 19 20 20 19 19 20 21 21 22 21 20 20 19 18 18 18 17 17 16 15 14 13 12 12 11 11 12 12 12 11 11 10 10 10 10 9 9 9 9 9 8
19 20 20 20 19 20 19 19 19 20 20 20 22 21 20 19 18 17 17 17 17 16 15 14 13 12 12 11 11 12 12 12 11 11 10 10 10 10 9 9 9 9 8 8
20 20 20 20 19 19 20 19 20 20 20 21 21 19 18 18 18 18 17 17 16 16 16 14 13 13 12 11 11 11 12 12 11 11 10 10 10 10 9 9 9 9 9 8
19 20 20 20 20 20 20 20 19 19 20 19 20 20 19 18 17 17 17 16 16 15 15 15 13 12 12 11 11 11 12 12 11 10 10 10 10 10 9 9 9 8 8 7
19 19 20 20 20 20 19 19 19 19 19 19 20 19 18 18 17 17 16 16 16 15 15 14 14 12 12 11 11 12 12 12 11 10 10 10 10 10 9 9 9 8 7 7
19 19 19 20 20 20 19 19 19 20 20 20 20 18 17 18 17 16 16 15 15 15 14 14 14 12 12 12 12 12 11 10 10 10 10 10 9 9 9 9 8 7 7 6
19 19 19 19 19 19 20 19 19 19 19 19 19 16 17 14 15 16 15 15 15 15 15 14 13 13 12 11 11 11 11 10 8 9 9 9 8 8 9 8 7 6 5 5
18 18 18 18 19 19 19 20 19 19 19 19 19 19 18 16 15 15 15 14 14 14 14 14 13 13 12 11 11 11 12 10 9 9 8 8 8 8 8 7 6 6 5 5
17 17 17 18 18 18 19 19 20 20 19 19 19 19 17 15 15 15 14 14 13 15 13 13 13 12 12 12 11 11 11 10 9 9 8 8 8 8 7 7 6 5 5 4
17 17 17 17 17 18 18 19 20 20 19 19 18 18 16 15 15 14 14 13 15 13 12 13 13 12 11 11 10 10 11 9 9 9 8 8 8 8 7 6 5 5 5 4
14 15 16 17 17 18 18 18 17 16 17 18 18 18 17 15 14 14 14 13 13 13 13 13 12 12 11 10 10 10 10 10 9 8 8 8 8 7 6 5 5 5 4 4
14 12 11 15 17 18 18 17 17 15 15 15 15 16 16 13 14 13 13 13 13 12 12 13 13 11 10 10 9 9 10 9 8 8 8 8 7 6 6 6 5 4 4 4
16 15 15 16 16 16 17 16 15 13 13 14 13 14 13 13 13 13 12 12 12 12 12 12 12 12 11 9 9 10 9 8 8 8 8 7 6 6 6 5 4 3 4 3
14 15 15 15 16 16 16 14 13 12 12 12 13 13 12 12 12 12 12 12 11 11 12 11 11 11 11 10 9 9 8 8 8 8 7 6 6 5 4 4 3 3 3 3
14 14 12 12 11 11 12 11 11 11 11 11 12 12 12 12 12 11 13 13 11 11 10 11 11 10 10 10 9 8 7 8 7 7 6 6 6 5 5 4 4 3 3 3
12 10 11 11 11 10 8 11 11 11 11 11 10 10 10 11 12 12 12 12 11 11 9 9 10 10 9 7 7 8 8 7 7 6 6 6 6 5 4 4 3 3 3 3
9 11 10 10 7 8 9 10 10 10 11 11 11 11 11 11 11 11 11 11 11 9 9 9 8 8 8 7 7 6 5 5 4 6 6 5 4 4 4 3 2 2 3 3
10 8 8 7 9 7 7 8 9 9 9 9 10 9 9 9 9 10 10 10 10 8 9 10 9 9 8 7 2 5 5 6 5 6 6 4 3 3 3 3 2 2 3 2

GFSCGP_700_temp_012.txt.gz
Temp
17 16 17 17 17 18 17 18 17 18 16 16 17 16 16 15 13 12 13 13 11 12 11 11 11 12 12 13 12 12 12 11 11 11 10 10 10 10 10 10 10 10 10 9
16 17 18 18 18 17 18 17 18 18 17 17 16 16 15 15 15 14 15 14 13 12 11 11 11 13 14 13 12 13 12 12 11 11 10 11 11 11 11 11 11 10 10 9
16 17 18 18 18 17 18 17 18 18 17 16 16 14 14 14 14 13 14 15 14 14 13 12 13 13 14 14 13 13 12 12 11 11 11 11 11 11 11 11 11 11 11 11
15 17 17 18 18 18 17 18 19 19 17 16 16 14 14 15 14 14 14 14 14 15 14 13 13 13 14 14 14 13 12 11 11 11 10 10 11 11 12 11 11 12 12 11
15 16 17 17 17 18 18 19 19 19 18 17 16 16 16 15 15 14 15 15 15 15 15 15 14 14 14 14 13 13 12 11 11 11 10 10 11 11 11 11 11 11 11 11
15 16 16 17 18 18 19 18 20 18 17 15 18 16 16 16 17 16 16 16 15 15 15 15 14 13 13 13 13 13 12 12 11 11 11 11 10 10 11 11 11 10 10 10
15 16 16 17 17 18 18 18 18 16 14 13 19 15 17 18 17 17 18 17 15 15 15 15 14 14 13 13 13 13 13 12 12 11 11 11 10 10 10 10 10 10 10 10
15 15 16 17 17 18 18 19 18 14 13 16 19 18 20 20 20 19 17 17 16 16 16 15 15 14 15 14 13 13 12 12 12 12 12 11 10 10 10 10 10 10 10 10
15 15 17 17 17 18 18 19 19 19 17 17 19 19 19 20 20 18 17 16 16 16 16 15 15 15 14 14 14 14 13 12 12 12 12 11 11 10 10 10 10 10 10 10
15 15 17 17 18 18 18 19 19 18 14 15 17 18 19 19 19 18 17 17 16 16 15 15 15 14 14 14 14 13 13 12 11 11 10 11 11 11 10 10 10 9 10 10
15 15 17 17 18 18 19 19 19 19 18 13 12 17 19 19 19 18 17 17 17 16 16 16 15 15 14 14 14 13 12 12 12 12 11 11 10 10 10 10 9 9 9 9
16 16 15 17 18 18 19 19 19 19 17 18 18 18 19 19 19 18 17 17 17 16 16 16 15 15 14 14 15 15 13 12 12 12 11 11 10 10 10 10 9 9 9 9
17 16 16 16 17 18 19 19 19 19 19 19 16 18 18 18 18 17 17 17 17 16 16 15 15 15 14 15 15 14 14 13 12 12 10 11 11 10 9 9 9 9 9 8
17 17 16 15 16 18 19 19 19 19 19 19 19 19 18 17 17 17 17 17 17 16 16 16 16 15 15 15 15 14 13 13 12 11 10 10 11 9 9 9 8 8 8 8
17 16 17 17 18 18 18 19 19 19 19 19 19 19 18 18 18 18 17 17 16 16 16 16 15 15 14 14 14 13 13 12 12 11 10 10 10 10 9 8 8 8 8 7
17 17 17 17 17 17 19 19 19 19 19 18 19 19 18 18 17 17 17 17 16 16 16 15 15 14 14 14 13 13 13 13 12 10 10 10 10 9 8 8 8 8 8 7
16 17 17 17 18 18 18 18 18 19 19 18 18 19 18 18 17 17 16 16 16 16 15 15 15 15 14 13 13 13 12 12 12 11 10 10 10 9 8 8 8 8 7 6
17 17 17 18 17 15 18 18 18 18 18 18 18 18 18 19 18 16 16 16 16 16 15 15 15 15 14 14 13 13 12 12 10 10 10 10 9 9 8 8 8 7 7 6
16 17 16 17 18 18 18 17 17 18 16 17 17 18 18 18 17 16 16 15 15 15 15 15 14 13 13 13 13 13 12 11 10 10 9 9 9 8 8 8 7 6 6 5
15 16 17 16 16 13 14 16 17 17 15 15 16 17 17 17 16 15 15 14 14 14 14 13 13 13 13 13 12 12 12 11 10 9 8 8 8 8 7 7 6 6 5 5
12 13 15 15 14 13 14 15 15 15 12 12 14 15 15 15 15 15 14 14 13 13 13 13 13 13 13 13 12 12 11 10 9 8 8 8 7 7 6 6 5 5 5 5
9 10 10 11 12 10 12 13 14 10 11 12 12 13 14 14 13 12 12 13 13 13 13 13 12 12 12 13 12 11 9 9 8 8 8 7 6 5 5 4 5 6 5 5
8 9 8 8 6 8 10 11 10 10 11 11 12 12 12 12 12 12 12 12 12 13 12 12 12 12 12 11 11 10 8 8 8 8 7 6 5 5 5 4 4 5 5 5
7 8 8 8 7 8 9 9 10 10 11 10 10 10 10 10 11 11 12 12 11 12 12 12 12 11 10 10 9 9 9 9 7 6 5 4 4 5 6 5 4 5 5 4
9 8 7 7 9 7 8 10 9 10 10 10 8 9 9 10 9 9 10 10 12 12 12 12 11 9 9 8 8 8 7 7 7 7 6 5 4 5 5 5 4 6 4 3
7 8 8 8 8 7 8 8 9 10 10 9 9 8 8 9 9 10 10 10 11 11 10 9 9 8 8 7 7 7 7 7 6 5 5 5 4 4 4 4 4 4 3 2

GFSCGP_700_temp_015.txt.gz
Temp
16 16 16 17 16 16 15 14 15 17 16 16 15 16 17 16 15 14 13 13 12 12 12 12 11 10 10 10 12 12 11 11 11 10 10 10 10 10 10 10 10 10 9 8
15 16 17 17 17 16 16 16 15 15 16 15 16 16 16 16 16 16 15 15 14 13 13 12 11 9 10 11 12 12 11 11 11 10 10 11 11 11 11 11 10 10 9 9
15 17 17 16 17 17 16 16 16 16 15 15 15 15 15 15 15 15 14 14 14 15 15 14 13 13 11 13 13 13 12 12 11 10 10 10 11 11 11 11 11 11 11 11
14 17 16 16 17 17 16 17 17 16 15 14 15 14 15 15 15 15 15 15 14 14 14 14 14 14 14 13 14 13 13 13 12 11 11 11 11 11 11 11 11 11 11 11
14 16 16 16 17 17 18 18 17 17 16 15 14 15 17 16 15 16 16 16 15 14 14 15 15 14 14 14 14 14 13 13 12 11 11 11 11 11 10 10 11 11 11 10
14 15 16 17 18 17 18 17 17 17 16 13 17 15 16 17 18 18 17 16 16 15 14 14 14 14 14 13 13 14 13 13 13 12 12 11 11 11 11 10 10 10 11 11
14 14 15 16 17 17 17 16 16 13 12 11 16 14 17 18 18 19 19 19 18 16 15 15 14 14 14 14 14 13 13 13 13 12 12 12 12 11 11 11 10 10 10 10
14 14 15 16 16 16 17 16 15 12 9 13 16 14 17 18 18 18 19 18 17 17 16 16 15 15 14 14 14 13 13 13 13 12 12 11 11 11 11 10 10 10 10 10
14 14 15 16 16 16 16 16 17 17 15 14 16 17 18 18 19 19 18 18 17 17 17 17 16 15 15 14 14 14 13 13 12 12 12 11 11 11 10 10 10 10 10 10
14 15 15 15 16 16 16 17 17 16 12 13 15 18 19 19 20 19 18 18 18 17 17 17 16 15 15 15 14 14 13 13 12 12 12 11 11 10 10 10 9 9 10 10
14 14 15 15 16 16 16 17 17 17 17 10 11 16 19 19 19 19 20 19 18 18 17 17 16 16 15 15 14 14 13 13 13 12 11 11 10 10 9 9 9 9 9 9
14 14 14 15 16 16 17 17 17 17 16 17 17 17 19 19 19 19 19 19 18 17 17 16 16 15 15 15 15 14 14 13 13 12 11 11 10 10 9 9 9 9 9 9
14 14 14 15 15 16 16 17 17 17 18 18 15 17 19 19 19 19 19 18 17 17 16 16 16 15 15 15 15 15 14 14 13 12 11 11 10 10 10 9 8 9 8 8
15 15 15 14 15 16 16 17 17 18 18 18 18 19 19 19 19 18 18 18 17 17 17 17 16 16 15 15 15 15 14 14 14 13 12 11 10 10 10 9 8 8 8 8
14 14 15 16 16 16 17 17 17 18 18 19 19 19 19 19 18 18 18 17 17 18 17 17 16 16 16 15 15 14 14 14 13 13 12 12 11 10 9 9 9 8 8 7
15 15 15 16 16 16 16 17 17 17 18 19 19 19 19 19 18 18 18 17 17 17 17 17 16 15 15 15 15 14 14 14 13 13 13 10 9 8 7 6 7 8 7 6
14 15 15 15 16 16 16 17 17 18 17 18 18 18 18 18 18 18 18 17 17 17 16 16 16 15 15 15 14 14 14 13 12 12 11 9 8 5 8 8 6 7 6 6
13 14 14 15 15 13 16 17 17 18 17 18 18 18 18 18 18 18 17 18 17 16 16 16 15 15 15 14 14 14 14 13 13 12 12 10 8 7 8 8 6 7 5 6
13 14 13 14 15 15 16 17 17 17 17 17 17 18 18 18 17 17 17 16 16 16 15 15 15 15 14 14 14 14 14 13 12 12 11 9 8 8 8 8 7 6 4 5
13 14 14 15 15 12 15 15 16 17 17 17 16 16 17 18 17 17 16 15 15 15 14 14 14 14 14 13 13 13 13 13 12 11 10 9 8 7 8 7 6 5 4 5
12 12 12 14 13 11 14 16 16 15 13 15 16 16 17 17 16 15 15 14 14 14 14 14 13 14 13 13 13 12 12 12 11 10 9 8 8 8 8 6 5 4 4 4
10 11 9 10 10 10 12 13 14 14 13 12 13 15 15 14 14 14 14 13 13 13 13 13 13 13 12 13 13 12 11 11 10 9 9 9 9 8 7 5 5 4 2 4
10 10 9 7 7 10 11 12 10 11 12 12 13 13 14 14 14 13 13 13 12 12 12 12 12 12 12 12 12 10 10 10 9 9 9 8 7 7 6 5 4 5 4 3
9 10 8 9 7 8 9 9 9 9 10 11 12 12 12 12 12 12 11 11 11 11 11 11 11 11 12 12 10 9 9 9 9 8 7 7 6 6 5 5 4 5 3 3
9 9 8 9 8 8 8 8 8 8 8 9 10 10 10 11 11 11 10 10 10 10 11 11 11 11 10 9 9 8 8 8 7 7 6 6 6 6 5 5 5 4 3 3
7 8 8 8 9 9 8 8 8 7 8 9 9 9 9 11 11 11 11 10 8 9 10 11 9 8 8 7 7 7 7 8 7 6 6 5 6 6 5 5 4 4 3 3

GFSCGP_700_temp_021.txt.gz
Temp
13 14 14 15 15 16 17 16 16 16 15 15 14 13 14 13 14 13 13 13 13 13 13 12 12 12 12 12 12 12 12 11 11 11 10 10 11 11 11 10 10 9 9 9
13 13 15 15 15 16 16 16 16 15 14 14 14 14 14 14 15 15 14 13 13 13 13 12 12 12 13 12 12 12 12 12 11 11 11 11 11 11 11 11 11 11 11 9
12 13 14 15 15 16 16 16 15 16 14 14 14 14 14 15 14 15 15 15 14 13 13 13 13 13 13 12 12 12 12 12 11 11 11 11 11 11 11 11 11 11 11 11
12 13 14 14 15 15 15 16 16 15 14 15 13 15 15 16 15 15 16 16 16 15 14 14 14 14 14 13 13 12 12 12 12 12 12 11 11 11 11 11 11 11 11 11
12 13 13 14 15 15 15 16 16 15 15 14 13 13 16 15 16 17 17 16 16 16 15 15 15 14 14 13 14 13 13 13 13 13 12 12 11 11 11 10 10 10 10 10
11 13 13 14 15 15 15 16 15 14 14 13 14 14 16 16 18 18 17 17 16 16 16 15 15 14 14 14 14 14 14 14 13 13 12 12 12 11 11 11 10 10 10 10
11 12 13 13 14 14 14 15 14 14 13 16 15 13 15 17 18 18 18 17 17 17 16 15 15 15 14 15 14 14 14 14 13 13 13 12 12 11 11 11 11 11 10 10
11 12 12 13 14 14 14 15 16 15 15 16 15 14 15 18 18 18 18 18 17 17 17 16 15 15 15 15 14 14 14 14 13 13 13 12 12 12 11 11 11 10 10 10
11 12 13 13 13 14 13 14 16 15 13 16 16 15 17 18 18 18 19 18 18 18 18 17 16 15 15 14 14 15 14 14 13 13 13 12 12 12 11 11 11 10 10 10
12 12 13 14 13 14 14 14 14 15 16 15 15 14 17 18 18 19 19 19 19 19 18 18 17 16 15 15 14 14 14 14 13 13 13 12 12 12 11 10 10 9 9 9
12 12 13 13 13 14 13 14 14 15 15 17 17 17 17 18 18 18 18 18 19 19 19 18 18 17 16 15 15 15 14 14 13 13 13 12 12 12 10 10 9 9 8 8
12 12 12 13 13 14 14 14 15 16 14 14 16 17 18 18 18 18 19 18 19 19 19 19 18 17 16 16 15 15 14 14 14 13 13 12 12 12 11 8 9 9 8 7
12 11 12 12 12 13 13 13 14 14 15 15 16 17 17 18 18 18 19 19 19 19 19 19 18 17 16 16 16 15 15 15 14 14 13 12 12 11 11 10 9 7 7 7
11 11 12 13 13 13 13 12 13 13 14 15 15 16 16 17 18 18 19 19 19 19 19 19 18 18 17 16 16 16 15 15 15 14 14 13 12 11 11 10 9 9 8 6
10 11 12 13 13 13 13 13 13 13 14 15 16 15 16 17 18 18 19 19 19 19 19 19 18 18 18 17 16 16 15 15 15 14 14 13 13 11 11 10 10 9 7 7
10 11 12 13 14 13 13 14 14 14 14 14 15 16 17 17 18 18 19 18 18 19 19 18 18 18 18 17 17 16 16 15 14 14 13 13 13 12 11 10 10 9 9 8
10 11 11 12 13 12 12 13 14 14 14 15 15 16 17 17 18 18 19 18 18 18 19 18 18 18 17 17 16 16 15 15 14 14 14 14 13 13 12 12 10 10 8 8
10 10 10 11 11 11 13 14 13 14 14 15 15 16 17 18 18 18 18 18 18 18 18 18 18 18 17 16 16 15 15 15 14 14 14 13 13 13 12 12 11 10 9 8
10 11 10 10 11 12 13 13 14 13 14 14 15 16 16 18 18 18 18 18 18 18 18 18 18 17 16 16 16 15 15 14 13 13 13 13 13 13 12 11 11 10 9 8
9 10 11 9 11 12 14 13 14 15 14 15 15 16 17 18 17 18 18 18 18 18 18 18 17 17 16 16 15 14 14 13 13 13 12 12 12 11 11 10 9 9 8 8
8 9 10 9 8 11 12 13 14 12 15 16 16 16 17 17 17 17 18 18 18 18 18 17 17 16 15 15 14 14 13 13 12 12 12 12 11 11 11 9 8 8 8 7
9 9 7 7 8 10 9 10 10 13 14 15 15 16 16 17 17 17 17 17 17 16 16 16 16 15 15 14 13 13 12 12 12 12 13 12 11 10 10 9 8 8 8 6
8 9 8 6 5 6 8 9 10 11 12 13 14 14 16 16 16 15 15 13 13 13 14 14 14 13 12 12 12 11 11 11 10 11 11 11 11 9 9 9 8 8 7 6
7 8 9 7 5 5 6 7 7 8 8 9 10 10 12 16 15 12 12 12 12 12 12 12 12 11 11 11 11 11 10 11 10 10 11 10 9 8 8 8 8 7 7 6
7 7 7 5 6 4 5 6 6 7 7 8 8 8 9 10 12 12 10 10 11 11 11 11 11 11 11 10 10 9 9 9 10 9 8 8 7 8 8 7 6 6 5 5
6 6 5 5 6 5 5 5 6 6 7 8 8 8 8 9 9 10 10 10 11 11 11 11 11 10 11 9 9 9 9 9 9 7 7 7 7 7 6 6 6 4 4 4